Weather in Taichung

Taiwan     24°08′01″N   120°40′31″E
temp.,
°C
wind,
m/s
gust,
m/s
humid.,
%
clouds,
%
prec.,
mm/h
press.,
hPa
HPBL,
m
25 may, wed
wed2523:00+23n1196100 3.3 101288
02:00+23s119392 4.9 101023
05:00+22nw0095100 1.1 101027
08:00+24n119295 2.1 1010134
11:00+23nw1196100 4.3 1010124
14:00+23nne1298100 18.3 1008124
17:00+23ese1296100 16.3 100888
20:00+22ese1297100 24.5 100964
26 may, thu
thu2623:00+22ese1296100 7.4 100964
02:00+23sse1192100 8.3 100713
05:00+22se129366 1.5 100740
08:00+22ssw2396100 3.1 1007177
11:00+23sse2395100 6.6 1008175
14:00+24se1387100 8.1 1006186
17:00+24ssw1291100 1.5 1005107
20:00+23nnw119484 4.7 100636
27 may, fri
fri2723:00+23sse0196100 2.0 100737
02:00+22s1196100 2.6 100552
05:00+22wsw1195100 0.2 100533
08:00+23wsw1193100 1.3 1006181
11:00+24wsw2394100 2.5 1006276
14:00+23s1398100 16.1 1006247
17:00+23sse239598 7.3 1006204
20:00+23se119398 8.2 100723
28 may, sat
sat2823:00+23sse119296 0.5 100814
02:00+22se119398 0.6 100715
05:00+22s229496 0.1 100767
08:00+24ssw1387100 1.4 1008232
11:00+27sw3572100 0.4 1008957
14:00+26sw2586100 2.8 1007522
17:00+24s2491100 1.9 1007305
20:00+23s2494100 2.4 1008160
29 may, sun
sun2923:00+23se2287100 0.6 100830
02:00+23sse1187100 0.6 100720
05:00+23sse2285100 0.1 100733
08:00+26ssw2476100 0.1 1008250
11:00+26ssw257695 0.0 1008365
14:00+30sw4658100 0.0 10051224
17:00+27wsw2573100 0.0 1005486
20:00+25s248396 0.1 1007168